Regional Weather Roundup
Issued by NWS

Home | Current Version | Previous Version | Graphics & Text | Print | Product List | Glossary On
Versions: 1 2 3 4 5 6 7 8 9 10 11 12 13 14 15 16 17 18 19 20 21 22 23 24 25 26 27 28 29 30 31 32 33 34 35 36 37 38 39 40 41 42 43 44 45 46 47 48 49 50
000
ASUS43 KLOT 301900
RWRIL

ILLINOIS REGIONAL WEATHER ROUNDUP
NATIONAL WEATHER SERVICE CHICAGO/ROMEOVILLE IL
200 PM CDT SAT MAY 30 2015

NOTE: "FAIR" INDICATES FEW OR NO CLOUDS BELOW 12,000 FEET WITH NO
SIGNIFICANT WEATHER AND/OR OBSTRUCTIONS TO VISIBILITY.

* THESE STATIONS ARE NOT UNDER NWS QUALITY CONTROL. THEY ALSO MAY NOT
  REPORT WEATHER SUCH AS PRECIPITATION OR FOG.

ILZ001-002-007-009-015-016-024-302000-
NORTHWEST ILLINOIS

CITY           SKY/WX    TMP DP  RH WIND       PRES   REMARKS
MOLINE         CLOUDY    66  61  84 N15       30.00R
STERLING*      CLOUDY    59  55  88 NE20G26   30.01R
$$

ILZ003-004-008-010-011-017-018-302000-
NORTH CENTRAL ILLINOIS

CITY           SKY/WX    TMP DP  RH WIND       PRES   REMARKS
ROCKFORD       LGT RAIN  54  50  86 NE20      30.09R
FREEPORT*      CLOUDY    53  51  92 NE16G24   30.09R
$$

ILZ005-006-012>014-019>023-302000-
NORTHEAST ILLINOIS

CITY           SKY/WX    TMP DP  RH WIND       PRES   REMARKS
CHICAGO-OHARE  LGT RAIN  50  48  93 N20G26    30.05S
CHICAGO-MIDWAY LGT RAIN  52  49  89 N21       30.03S FOG
AURORA         LGT RAIN  56  52  86 NE21      30.02R FOG
WAUKEGAN       LGT RAIN  48  46  93 N21G32    30.06S
DUPAGE AIRPORT LGT RAIN  53  50  89 NE16      30.03R
WHEELING       LGT RAIN  50  47  89 N17G28    30.08S
NORTHERLY ISL    N/A     49  47  93 N20         N/A
$$

LMZ740>746-302000-
SOUTHERN LAKE MICHIGAN

STATION/POSITION SKY/WX   TEMP    WIND        PRES    VSBY  WAVE
                          AIR SEA DIR/SP/G                  HT/PER
                          (F)     (DEG/KT/KT) (MB)    (MI)  (FT/S)
SOUTHERN BUOY              41 38  350/ 17/ 21 1017.6          2/ 4
HARRISON CRIB              48     340/ 24/ 29   N/A
BURNHAM HARBOR             50     330/ 17/ 19   N/A
CALUMET HARBOR             51     340/ 16/ 22   N/A
BURNS HARBOR               50     340/ 10/ 13 1016.9
MICHIGAN CITY              52     350/  9/ 10   N/A
MICHIGAN CITY 6N           50 57  350/ 14/ 17   N/A           1
ST. JOSEPH                 52 57  360/ 12/ 14   N/A           1
$$

ILZ025>027-034>036-040-047-049-050-058-095>099-302000-
WEST-CENTRAL ILLINOIS

CITY           SKY/WX    TMP DP  RH WIND       PRES   REMARKS
QUINCY         CLOUDY    68  65  90 NW12      29.98F
MACOMB*        LGT RAIN  70  66  89 W9        30.00F
$$

ILZ028>032-037-038-041>044-048-051>054-059>061-302000-
CENTRAL ILLINOIS

CITY           SKY/WX    TMP DP  RH WIND       PRES   REMARKS
DECATUR        LGT RAIN  74  68  81 NW6       29.92F
PEORIA         LGT RAIN  70  65  84 N6        29.97F
LINCOLN*       LGT RAIN  70  67  90 N5        29.92F
SPRINGFIELD    HVY RAIN  70  67  90 NW8       29.96R FOG
TAYLORVILLE    NOT AVBL
$$

ILZ033-039-045-046-055>057-062-063-302000-
EAST-CENTRAL ILLINOIS

CITY           SKY/WX    TMP DP  RH WIND       PRES   REMARKS
CHAMPAIGN      HVY RAIN  71  67  87 CALM      29.93R VSB 1
MATTOON        HVY RAIN  68  63  84 W9G18     29.93S
$$

ILZ079-100>102-302000-
SOUTHWEST ILLINOIS

CITY           SKY/WX    TMP DP  RH WIND       PRES   REMARKS
BELLEVILLE     PTSUNNY   71  71 100 N8        29.90F
CAHOKIA*       LGT RAIN  71  67  87 NW10      29.92S
SPARTA*        CLOUDY    77  69  75 S14       29.91S
$$

ILZ064>066-069>071-074>076-080>082-084>086-088>090-092>094-302000-
SOUTH-CENTRAL ILLINOIS

CITY           SKY/WX    TMP DP  RH WIND       PRES   REMARKS
CARBONDALE     CLOUDY    78  69  73 S7        29.88F HX  80
MT. VERNON     PTSUNNY   82  66  57 S13       29.90F HX  85
SALEM*         MOSUNNY   82  67  59 S15       29.90F HX  84
$$

ILZ067-068-072-073-078-083-087-091-302000-
SOUTHEAST ILLINOIS

CITY           SKY/WX    TMP DP  RH WIND       PRES   REMARKS
LAWRENCEVILLE  MOSUNNY   87  65  47 S17G32    29.92F HX  89
HARRISBURG*    MOSUNNY   82  67  61 S15G21    29.92F HX  84
ROBINSON*      CLOUDY    73  69  87 W8G16     29.93F
$$

ABBREVIATIONS USED IN REMARKS
   TC - TEMPERATURE IN CELSIUS
  WCI - WIND CHILL INDEX
   HX - HEAT INDEX
  VSB - VISIBILITY
$$



USA.gov is the U.S. government's official web portal to all federal, state and local government web resources and services.